• In Portugal
  • List of Countries
  • For 7 days
  • Water Temperature
  • Satellite Maps
  • Weather Map
  • Weather Widgets
  • user-avatar
    Login

    Hourly Weather Windhuk

    Today, 20 October, Friday

    Time Temperature Precipitation Wind Pressure Humidity
    00:00 +18°C° 0 mm 1 mps 622 mmHg 16%
    01:00 +18°C° 0 mm 1 mps 622 mmHg 17%
    02:00 +16°C° 0 mm 1 mps 622 mmHg 18%
    03:00 +15°C° 0 mm 1 mps 621 mmHg 19%
    04:00 +15°C° 0 mm 1 mps 621 mmHg 20%
    05:00 +18°C° 0 mm 1 mps 622 mmHg 18%
    06:00 +19°C° 0 mm 1 mps 623 mmHg 16%
    07:00 +18°C° 0 mm 0 mps 624 mmHg 16%
    08:00 +23°C° 0 mm 1 mps 624 mmHg 14%
    09:00 +25°C° 0 mm 3 mps 625 mmHg 11%
    10:00 +27°C° 0 mm 4 mps 625 mmHg 9%
    11:00 +29°C° 0 mm 5 mps 625 mmHg 8%
    12:00 +30°C° 0 mm 6 mps 625 mmHg 8%
    13:00 +32°C° 0 mm 6 mps 626 mmHg 7%
    14:00 +32°C° 0 mm 6 mps 625 mmHg 7%
    15:00 +32°C° 0 mm 7 mps 625 mmHg 7%
    16:00 +30°C° 0 mm 7 mps 625 mmHg 7%
    17:00 +28°C° 0 mm 6 mps 625 mmHg 8%
    18:00 +26°C° 0 mm 5 mps 625 mmHg 10%
    19:00 +24°C° 0 mm 3 mps 624 mmHg 11%
    20:00 +22°C° 0 mm 3 mps 624 mmHg 12%
    21:00 +21°C° 0 mm 2 mps 625 mmHg 13%
    22:00 +21°C° 0 mm 1 mps 625 mmHg 14%
    23:00 +20°C° 0 mm 1 mps 624 mmHg 15%

    Tomorrow, 21 October, Saturday

    Time Temperature Precipitation Wind Pressure Humidity
    00:00 +20°C° 0 mm 1 mps 624 mmHg 15%
    01:00 +18°C° 0 mm 2 mps 624 mmHg 16%
    02:00 +18°C° 0 mm 2 mps 623 mmHg 17%
    03:00 +17°C° 0 mm 2 mps 623 mmHg 19%
    04:00 +16°C° 0 mm 2 mps 623 mmHg 20%
    05:00 +17°C° 0 mm 3 mps 624 mmHg 20%
    06:00 +18°C° 0 mm 4 mps 624 mmHg 19%
    07:00 +19°C° 0 mm 6 mps 625 mmHg 19%
    08:00 +22°C° 0 mm 6 mps 626 mmHg 16%
    09:00 +24°C° 0 mm 6 mps 626 mmHg 14%
    10:00 +28°C° 0 mm 7 mps 627 mmHg 11%
    11:00 +29°C° 0 mm 5 mps 627 mmHg 10%
    12:00 +30°C° 0 mm 4 mps 626 mmHg 9%
    13:00 +33°C° 0 mm 3 mps 626 mmHg 7%
    14:00 +33°C° 0 mm 4 mps 626 mmHg 7%
    15:00 +34°C° 0 mm 4 mps 626 mmHg 7%
    16:00 +34°C° 0 mm 5 mps 625 mmHg 7%
    17:00 +33°C° 0 mm 5 mps 625 mmHg 8%
    18:00 +30°C° 0 mm 5 mps 625 mmHg 9%
    19:00 +28°C° 0 mm 5 mps 625 mmHg 10%
    20:00 +27°C° 0 mm 4 mps 625 mmHg 12%
    21:00 +25°C° 0 mm 4 mps 625 mmHg 13%
    22:00 +24°C° 0 mm 3 mps 625 mmHg 15%
    23:00 +22°C° 0 mm 3 mps 625 mmHg 16%

    Day after tomorrow, 22 October, Sunday

    Time Temperature Precipitation Wind Pressure Humidity
    00:00 +23°C° 0 mm 2 mps 624 mmHg 17%
    01:00 +21°C° 0 mm 2 mps 624 mmHg 18%
    02:00 +20°C° 0 mm 2 mps 624 mmHg 18%
    03:00 +20°C° 0 mm 2 mps 623 mmHg 19%
    04:00 +19°C° 0 mm 2 mps 623 mmHg 19%
    05:00 +22°C° 0 mm 1 mps 624 mmHg 17%
    06:00 +23°C° 0 mm 1 mps 625 mmHg 15%
    07:00 +25°C° 0 mm 1 mps 625 mmHg 14%
    08:00 +27°C° 0 mm 1 mps 626 mmHg 12%
    09:00 +29°C° 0 mm 2 mps 626 mmHg 10%
    10:00 +31°C° 0 mm 2 mps 627 mmHg 8%
    11:00 +33°C° 0 mm 4 mps 627 mmHg 8%
    12:00 +34°C° 0 mm 5 mps 626 mmHg 8%
    13:00 +35°C° 0 mm 6 mps 626 mmHg 8%
    14:00 +35°C° 0 mm 7 mps 626 mmHg 8%
    15:00 +35°C° 0 mm 7 mps 625 mmHg 8%
    16:00 +34°C° 0 mm 8 mps 625 mmHg 8%
    17:00 +33°C° 0 mm 7 mps 625 mmHg 9%
    18:00 +30°C° 0 mm 6 mps 625 mmHg 11%
    19:00 +28°C° 0 mm 6 mps 625 mmHg 12%
    20:00 +27°C° 0 mm 4 mps 625 mmHg 14%
    21:00 +26°C° 0 mm 3 mps 625 mmHg 15%
    22:00 +25°C° 0 mm 1 mps 625 mmHg 17%
    23:00 +24°C° 0 mm 1 mps 625 mmHg 18%

    23 October, Monday

    Time Temperature Precipitation Wind Pressure Humidity
    00:00 +23°C° 0 mm 1 mps 624 mmHg 19%
    01:00 +23°C° 0 mm 1 mps 624 mmHg 20%
    02:00 +22°C° 0 mm 1 mps 623 mmHg 21%
    03:00 +22°C° 0 mm 1 mps 623 mmHg 23%
    04:00 +21°C° 0 mm 1 mps 623 mmHg 25%
    05:00 +23°C° 0 mm 1 mps 624 mmHg 23%
    06:00 +24°C° 0 mm 1 mps 625 mmHg 21%
    07:00 +23°C° 0 mm 0 mps 626 mmHg 19%
    08:00 +27°C° 0 mm 1 mps 626 mmHg 16%
    09:00 +29°C° 0 mm 2 mps 626 mmHg 14%
    10:00 +31°C° 0 mm 3 mps 627 mmHg 12%
    11:00 +33°C° 0 mm 3 mps 626 mmHg 12%
    12:00 +34°C° 0 mm 3 mps 626 mmHg 11%
    13:00 +34°C° 0 mm 4 mps 625 mmHg 11%
    14:00 +34°C° 0 mm 4 mps 625 mmHg 11%
    15:00 +34°C° 0 mm 4 mps 625 mmHg 11%
    16:00 +34°C° 0 mm 5 mps 625 mmHg 11%
    17:00 +32°C° 0 mm 5 mps 625 mmHg 13%
    18:00 +29°C° 0 mm 5 mps 625 mmHg 16%
    19:00 +27°C° 0 mm 4 mps 625 mmHg 19%
    20:00 +26°C° 0 mm 3 mps 625 mmHg 21%
    21:00 +26°C° 0 mm 2 mps 625 mmHg 23%
    22:00 +25°C° 0 mm 1 mps 625 mmHg 25%
    23:00 +24°C° 0 mm 1 mps 624 mmHg 26%

    24 October, Tuesday

    Time Temperature Precipitation Wind Pressure Humidity
    00:00 +23°C° 0 mm 1 mps 623 mmHg 27%
    01:00 +23°C° 0 mm 1 mps 623 mmHg 27%
    02:00 +22°C° 0 mm 1 mps 622 mmHg 27%
    03:00 +21°C° 0 mm 1 mps 622 mmHg 27%
    04:00 +21°C° 0 mm 1 mps 622 mmHg 27%
    05:00 +22°C° 0 mm 1 mps 623 mmHg 27%
    06:00 +24°C° 0 mm 2 mps 624 mmHg 27%
    07:00 +26°C° 0 mm 2 mps 625 mmHg 27%
    08:00 +27°C° 0 mm 2 mps 625 mmHg 24%
    09:00 +29°C° 0 mm 2 mps 625 mmHg 20%
    10:00 +31°C° 0 mm 3 mps 626 mmHg 17%
    11:00 +33°C° 0 mm 3 mps 625 mmHg 16%
    12:00 +34°C° 0 mm 3 mps 625 mmHg 15%
    13:00 +35°C° 0 mm 3 mps 625 mmHg 14%
    14:00 +35°C° 0 mm 3 mps 625 mmHg 13%
    15:00 +35°C° 0 mm 3 mps 624 mmHg 13%
    16:00 +35°C° 0 mm 4 mps 624 mmHg 13%
    17:00 +33°C° 0 mm 4 mps 624 mmHg 15%
    18:00 +32°C° 0 mm 5 mps 625 mmHg 17%
    19:00 +30°C° 0 mm 5 mps 625 mmHg 19%
    20:00 +29°C° 0 mm 4 mps 625 mmHg 20%
    21:00 +28°C° 0 mm 2 mps 625 mmHg 22%
    22:00 +26°C° 0 mm 1 mps 625 mmHg 23%
    23:00 +26°C° 0.1 mm 1 mps 624 mmHg 24%

    25 October, Wednesday

    Time Temperature Precipitation Wind Pressure Humidity
    00:00 +25°C° 0.1 mm 1 mps 624 mmHg 26%
    01:00 +22°C° 0.1 mm 0 mps 623 mmHg 27%
    02:00 +22°C° 0 mm 0 mps 623 mmHg 28%
    03:00 +22°C° 0 mm 0 mps 623 mmHg 28%
    04:00 +21°C° 0 mm 0 mps 623 mmHg 28%
    05:00 +22°C° 0 mm 0 mps 623 mmHg 26%
    06:00 +25°C° 0 mm 1 mps 624 mmHg 24%
    07:00 +26°C° 0 mm 1 mps 625 mmHg 21%
    08:00 +27°C° 0 mm 1 mps 625 mmHg 19%
    09:00 +28°C° 0 mm 2 mps 625 mmHg 17%
    10:00 +30°C° 0 mm 3 mps 626 mmHg 14%
    11:00 +30°C° 0 mm 4 mps 626 mmHg 14%
    12:00 +32°C° 0 mm 5 mps 625 mmHg 13%
    13:00 +32°C° 0 mm 6 mps 625 mmHg 13%
    14:00 +32°C° 0 mm 6 mps 625 mmHg 13%
    15:00 +32°C° 0 mm 6 mps 624 mmHg 14%
    16:00 +30°C° 0 mm 7 mps 624 mmHg 15%
    17:00 +29°C° 0 mm 6 mps 624 mmHg 17%
    18:00 +27°C° 0 mm 5 mps 624 mmHg 20%
    19:00 +26°C° 0 mm 4 mps 624 mmHg 22%
    20:00 +25°C° 0 mm 3 mps 624 mmHg 23%
    21:00 +24°C° 0 mm 2 mps 624 mmHg 23%
    22:00 +23°C° 0 mm 1 mps 624 mmHg 24%
    23:00 +23°C° 0 mm 1 mps 623 mmHg 25%
    Show more